When you browse on this site, cookies collect data to enhance your experience and personalize the content and advertising you see.
Visit our Privacy Policy to learn more. By continuing to use the site, you agree to this use of cookies and data.

Stündliche Wetter Dinagepoor

Heute, 18 September, Freitag

Zeit Temperatur Niederschläge Wind Luftdruck Luftfeuchtigkeit
00:00 +28°C° 0 mm 2 m/S 750 mmHg 89%
01:00 +28°C° 0.1 mm 2 m/S 750 mmHg 90%
02:00 +28°C° 0.1 mm 2 m/S 750 mmHg 91%
03:00 +28°C° 0.1 mm 2 m/S 749 mmHg 92%
04:00 +28°C° 0.5 mm 2 m/S 749 mmHg 93%
05:00 +28°C° 0.5 mm 2 m/S 749 mmHg 93%
06:00 +27°C° 0 mm 2 m/S 750 mmHg 94%
07:00 +28°C° 0.3 mm 2 m/S 750 mmHg 94%
08:00 +28°C° 0.3 mm 3 m/S 750 mmHg 93%
09:00 +28°C° 0.3 mm 3 m/S 751 mmHg 93%
10:00 +29°C° 0.3 mm 3 m/S 751 mmHg 87%
11:00 +31°C° 0.3 mm 3 m/S 750 mmHg 81%
12:00 +33°C° 0 mm 3 m/S 751 mmHg 75%
13:00 +32°C° 0.1 mm 2 m/S 750 mmHg 73%
14:00 +32°C° 0.1 mm 2 m/S 749 mmHg 71%
15:00 +33°C° 0.1 mm 1 m/S 748 mmHg 69%
16:00 +32°C° 0 mm 1 m/S 748 mmHg 72%
17:00 +32°C° 0 mm 1 m/S 747 mmHg 74%
18:00 +31°C° 0 mm 2 m/S 748 mmHg 77%
19:00 +30°C° 0 mm 1 m/S 749 mmHg 79%
20:00 +30°C° 0 mm 1 m/S 749 mmHg 80%
21:00 +29°C° 0 mm 1 m/S 750 mmHg 81%
22:00 +29°C° 0 mm 1 m/S 750 mmHg 82%
23:00 +29°C° 0 mm 1 m/S 750 mmHg 83%

Morgen, 19 September, Samstag

Zeit Temperatur Niederschläge Wind Luftdruck Luftfeuchtigkeit
00:00 +29°C° 0 mm 2 m/S 750 mmHg 84%
01:00 +29°C° 0 mm 2 m/S 749 mmHg 85%
02:00 +28°C° 0 mm 2 m/S 749 mmHg 86%
03:00 +28°C° 0 mm 2 m/S 748 mmHg 88%
04:00 +28°C° 0 mm 2 m/S 748 mmHg 87%
05:00 +28°C° 0 mm 2 m/S 748 mmHg 87%
06:00 +28°C° 0 mm 2 m/S 748 mmHg 87%
07:00 +29°C° 0 mm 2 m/S 749 mmHg 81%
08:00 +31°C° 0 mm 2 m/S 749 mmHg 76%
09:00 +32°C° 0 mm 2 m/S 749 mmHg 70%
10:00 +34°C° 0 mm 2 m/S 749 mmHg 66%
11:00 +36°C° 0 mm 2 m/S 749 mmHg 62%
12:00 +37°C° 0 mm 2 m/S 748 mmHg 58%
13:00 +37°C° 0 mm 2 m/S 747 mmHg 56%
14:00 +37°C° 0 mm 2 m/S 747 mmHg 54%
15:00 +38°C° 0 mm 2 m/S 746 mmHg 53%
16:00 +37°C° 0 mm 2 m/S 746 mmHg 57%
17:00 +35°C° 0 mm 1 m/S 746 mmHg 61%
18:00 +34°C° 0 mm 1 m/S 746 mmHg 66%
19:00 +33°C° 0 mm 1 m/S 746 mmHg 67%
20:00 +33°C° 0 mm 1 m/S 747 mmHg 68%
21:00 +32°C° 0 mm 1 m/S 748 mmHg 69%
22:00 +32°C° 0 mm 1 m/S 747 mmHg 70%
23:00 +32°C° 0 mm 1 m/S 747 mmHg 71%

übermorgen, 20 September, Sonntag

Zeit Temperatur Niederschläge Wind Luftdruck Luftfeuchtigkeit
00:00 +31°C° 0 mm 1 m/S 747 mmHg 71%
01:00 +31°C° 0 mm 1 m/S 747 mmHg 73%
02:00 +31°C° 0 mm 1 m/S 747 mmHg 74%
03:00 +30°C° 0 mm 1 m/S 746 mmHg 75%
04:00 +30°C° 0 mm 1 m/S 746 mmHg 76%
05:00 +30°C° 0 mm 2 m/S 747 mmHg 78%
06:00 +30°C° 0 mm 2 m/S 747 mmHg 79%
07:00 +31°C° 0 mm 2 m/S 747 mmHg 75%
08:00 +34°C° 0 mm 3 m/S 747 mmHg 72%
09:00 +35°C° 0 mm 3 m/S 748 mmHg 68%
10:00 +36°C° 0 mm 3 m/S 747 mmHg 65%
11:00 +37°C° 0 mm 3 m/S 747 mmHg 61%
12:00 +38°C° 0 mm 3 m/S 747 mmHg 58%
13:00 +39°C° 0 mm 2 m/S 746 mmHg 56%
14:00 +39°C° 0 mm 2 m/S 745 mmHg 53%
15:00 +39°C° 0 mm 2 m/S 745 mmHg 51%
16:00 +38°C° 0 mm 2 m/S 744 mmHg 55%
17:00 +36°C° 0 mm 1 m/S 744 mmHg 59%
18:00 +35°C° 0 mm 1 m/S 744 mmHg 63%
19:00 +35°C° 0 mm 1 m/S 745 mmHg 65%
20:00 +35°C° 0 mm 2 m/S 746 mmHg 67%
21:00 +34°C° 0 mm 2 m/S 746 mmHg 69%
22:00 +34°C° 0.1 mm 2 m/S 746 mmHg 71%
23:00 +34°C° 0.1 mm 2 m/S 746 mmHg 73%

21 September, Montag

Zeit Temperatur Niederschläge Wind Luftdruck Luftfeuchtigkeit
00:00 +33°C° 0.1 mm 3 m/S 746 mmHg 75%
01:00 +33°C° 0.7 mm 3 m/S 746 mmHg 79%
02:00 +31°C° 0.7 mm 3 m/S 746 mmHg 82%
03:00 +31°C° 0.7 mm 3 m/S 746 mmHg 86%
04:00 +30°C° 0 mm 3 m/S 746 mmHg 88%
05:00 +30°C° 0 mm 2 m/S 746 mmHg 89%
06:00 +29°C° 0 mm 2 m/S 746 mmHg 91%
07:00 +30°C° 0 mm 3 m/S 747 mmHg 88%
08:00 +32°C° 0 mm 4 m/S 748 mmHg 84%
09:00 +33°C° 0 mm 4 m/S 748 mmHg 81%
10:00 +34°C° 1.6 mm 4 m/S 748 mmHg 76%
11:00 +35°C° 1.6 mm 4 m/S 748 mmHg 70%
12:00 +36°C° 1.6 mm 4 m/S 748 mmHg 65%
13:00 +36°C° 3.1 mm 4 m/S 747 mmHg 66%
14:00 +36°C° 3.1 mm 4 m/S 746 mmHg 66%
15:00 +35°C° 3.1 mm 4 m/S 746 mmHg 67%
16:00 +34°C° 3 mm 5 m/S 746 mmHg 72%
17:00 +33°C° 3 mm 5 m/S 746 mmHg 77%
18:00 +30°C° 3 mm 6 m/S 747 mmHg 82%
19:00 +30°C° 0 mm 5 m/S 747 mmHg 84%
20:00 +29°C° 0 mm 5 m/S 748 mmHg 86%
21:00 +29°C° 0 mm 4 m/S 749 mmHg 88%
22:00 +29°C° 0.8 mm 5 m/S 749 mmHg 89%
23:00 +29°C° 0.8 mm 5 m/S 749 mmHg 89%

22 September, Dienstag

Zeit Temperatur Niederschläge Wind Luftdruck Luftfeuchtigkeit
00:00 +29°C° 0.8 mm 6 m/S 749 mmHg 90%
01:00 +28°C° 1.1 mm 6 m/S 748 mmHg 90%
02:00 +28°C° 1.1 mm 6 m/S 748 mmHg 91%
03:00 +28°C° 1.1 mm 7 m/S 748 mmHg 92%
04:00 +28°C° 1.5 mm 7 m/S 748 mmHg 92%
05:00 +28°C° 1.5 mm 7 m/S 748 mmHg 93%
06:00 +27°C° 1.5 mm 8 m/S 748 mmHg 94%
07:00 +27°C° 1.3 mm 7 m/S 749 mmHg 94%
08:00 +28°C° 1.3 mm 7 m/S 749 mmHg 94%
09:00 +28°C° 1.3 mm 7 m/S 749 mmHg 93%
10:00 +28°C° 1.6 mm 6 m/S 749 mmHg 92%
11:00 +29°C° 1.6 mm 6 m/S 749 mmHg 90%
12:00 +30°C° 1.6 mm 6 m/S 749 mmHg 88%
13:00 +30°C° 1.8 mm 6 m/S 748 mmHg 87%
14:00 +30°C° 1.8 mm 7 m/S 748 mmHg 87%
15:00 +31°C° 1.8 mm 8 m/S 747 mmHg 86%
16:00 +29°C° 1.6 mm 8 m/S 747 mmHg 88%
17:00 +28°C° 1.6 mm 8 m/S 747 mmHg 90%
18:00 +28°C° 1.6 mm 8 m/S 748 mmHg 92%
19:00 +27°C° 2.3 mm 8 m/S 748 mmHg 93%
20:00 +27°C° 2.3 mm 8 m/S 749 mmHg 94%
21:00 +27°C° 2.3 mm 7 m/S 749 mmHg 95%
22:00 +27°C° 2.4 mm 7 m/S 749 mmHg 95%
23:00 +28°C° 2.4 mm 7 m/S 749 mmHg 95%

23 September, Mittwoch

Zeit Temperatur Niederschläge Wind Luftdruck Luftfeuchtigkeit
00:00 +28°C° 2.4 mm 6 m/S 748 mmHg 95%
01:00 +28°C° 1.4 mm 6 m/S 748 mmHg 95%
02:00 +28°C° 1.4 mm 5 m/S 748 mmHg 94%
03:00 +28°C° 1.4 mm 5 m/S 747 mmHg 94%
04:00 +28°C° 1.5 mm 5 m/S 748 mmHg 94%
05:00 +28°C° 1.5 mm 5 m/S 748 mmHg 93%
06:00 +28°C° 1.5 mm 5 m/S 748 mmHg 93%
07:00 +29°C° 1.1 mm 5 m/S 749 mmHg 91%
08:00 +29°C° 1.1 mm 5 m/S 749 mmHg 88%
09:00 +30°C° 1.1 mm 6 m/S 749 mmHg 86%
10:00 +32°C° 2.6 mm 5 m/S 749 mmHg 85%
11:00 +32°C° 2.6 mm 5 m/S 749 mmHg 83%
12:00 +32°C° 2.6 mm 5 m/S 749 mmHg 82%
13:00 +32°C° 2.4 mm 5 m/S 748 mmHg 83%
14:00 +32°C° 2.4 mm 5 m/S 748 mmHg 83%
15:00 +32°C° 2.4 mm 6 m/S 747 mmHg 84%
16:00 +30°C° 3.5 mm 6 m/S 747 mmHg 87%
17:00 +29°C° 3.5 mm 6 m/S 747 mmHg 91%
18:00 +28°C° 3.5 mm 6 m/S 748 mmHg 94%
19:00 +28°C° 1.3 mm 6 m/S 748 mmHg 95%
20:00 +27°C° 1.3 mm 6 m/S 749 mmHg 95%
21:00 +27°C° 1.3 mm 5 m/S 749 mmHg 95%
22:00 +27°C° 1.9 mm 4 m/S 749 mmHg 96%
23:00 +28°C° 1.9 mm 4 m/S 749 mmHg 96%
Mehr zeigen